Find Starlink 31732

NORAD ID: 60099 Int'l Des: 2024-117 Owner: SPXS Country: US Constellation: starlink operational
LEOCIRCULAR

Live Position

Loading 3D Globe...

About Starlink 31732

Description loading...

Upcoming Passes

Passes for default location (London). Set your location on the main map for personalized predictions.

Altitude History

Loading altitude history...

Two-Line Element Set

1 60099U 24117J 26126.30924945 -.00001883 00000-0 -51489-4 0 9995
2 60099 53.1602 129.1038 0001389 92.0805 268.0355 15.30182629105712
Epoch: May 6, 2026 • Age: 16 hours

Current Status

Altitude 476.4 km
Velocity 7.63 km/s
Sub-Earth Point 30.30°N, 59.63°E
Launch Date Jun 23, 2024
Age 1.8 years
Type internet

Technical Details

Classification Payload
Mass 730.00 kg
Dry Mass 700.00 kg
Total Mass 730.00 kg
Length 0.30 m
Diameter 4.10 m
Span 29.00 m
Shape Box + pan
Manufacturer SPXS
Bus Type Starlink V2M
Phase Status In Orbit
Owner/State SPXS/US

Most Searched